Regional Weather Roundup
Issued by NWS

Home | Current Version | Previous Version | Text Only | Print | Product List | Glossary Off
Versions: 1 2 3 4 5 6 7 8 9 10 11 12 13 14 15 16 17 18 19 20 21 22 23 24 25 26 27 28 29 30 31 32 33 34 35 36 37 38 39 40 41 42 43 44 45 46 47 48 49 50

000
ASUS43 KLOT 262203
RWRIL

ILLINOIS REGIONAL WEATHER ROUNDUP
NATIONAL WEATHER SERVICE CHICAGO/ROMEOVILLE IL
400 PM CST SUN FEB 26 2017

NOTE: "FAIR" INDICATES FEW OR NO CLOUDS BELOW 12,000 FEET WITH NO
SIGNIFICANT WEATHER AND/OR OBSTRUCTIONS TO VISIBILITY.

* THESE STATIONS ARE NOT UNDER NWS QUALITY CONTROL. THEY ALSO MAY NOT
  REPORT WEATHER SUCH AS PRECIPITATION OR FOG.

ILZ001-002-007-009-015-016-024-262300-
NORTHWEST ILLINOIS

CITY           SKY/WX    TMP DP  RH WIND       PRES   REMARKS
MOLINE         CLOUDY    47  28  47 W9        29.93R
STERLING*      PTSUNNY   48  24  39 SW15G22   29.92S
$$

ILZ003-004-008-010-011-017-018-262300-
NORTH CENTRAL ILLINOIS

CITY           SKY/WX    TMP DP  RH WIND       PRES   REMARKS
ROCKFORD       PTSUNNY   48  22  35 W15G30    29.93R
FREEPORT*      MOSUNNY   45  24  42 W18G28    29.92R
ROCHELLE*      PTSUNNY   46  26  44 W17G28    29.93S
DE KALB*       SUNNY     46  23  39 W18G29    29.94R
PERU*          MOSUNNY   47  22  35 SW16      29.95F
$$

ILZ005-006-012>014-019>023-262300-
NORTHEAST ILLINOIS

CITY           SKY/WX    TMP DP  RH WIND       PRES   REMARKS
CHICAGO-OHARE  MOSUNNY   49  21  33 W17G31    29.93R
CHICAGO-MIDWAY MOSUNNY   48  20  32 SW20      29.95R
AURORA         SUNNY     48  23  37 SW21G28   29.94R
LANSING*       CLOUDY    48  25  41 SW23G32   29.97R
JOLIET*        SUNNY     49  21  33 SW14G24   29.97S
WAUKEGAN       MOSUNNY   46  22  38 SW15G26   29.90R
DUPAGE AIRPORT MOSUNNY   47  21  35 SW22G31   29.93R
KANKAKEE*      MOSUNNY   49  19  30 SW20G29   30.00R
WHEELING       MOSUNNY   47  18  31 W16G28    29.93R
MORRIS*        SUNNY     48  20  33 W17       29.96S
ROMEOVILLE*    MOSUNNY   47  27  45 SW18G24   29.96R
NORTHERLY ISL    N/A     47  17  30 W10         N/A
$$

LMZ740>746-262300-
SOUTHERN LAKE MICHIGAN

STATION/POSITION SKY/WX   TEMP    WIND        PRES    VSBY  WAVE
                          AIR SEA DIR/SP/G                  HT/PER
                          (F)     (DEG/KT/KT) (MB)    (MI)  (FT/S)
HARRISON CRIB              47     220/ 24/ 31   N/A
BURNHAM HARBOR             47     240/ 11/ 18   N/A
CALUMET HARBOR             47     210/ 12/ 19 1013.6R
BURNS HARBOR               46     220/ 16/ 26 1015.2R
MICHIGAN CITY              44     220/ 19/ 20   N/A
$$

ILZ025>027-034>036-040-047-049-050-058-095>099-262300-
WEST-CENTRAL ILLINOIS

CITY           SKY/WX    TMP DP  RH WIND       PRES   REMARKS
QUINCY         PTSUNNY   49  25  39 S16       30.00S
GALESBURG*     PTSUNNY   48  26  42 SW17G25   29.95R
MACOMB*        MOSUNNY   48  28  45 SW20G26   30.00R
JACKSONVILLE*  CLOUDY    46  24  43 SW15      30.04S
PITTSFIELD*    PTSUNNY   46  24  41 S13       30.04R
$$

ILZ028>032-037-038-041>044-048-051>054-059>061-262300-
CENTRAL ILLINOIS

CITY           SKY/WX    TMP DP  RH WIND       PRES   REMARKS
PONTIAC        SUNNY     50  20  30 SW20G28   29.99R
BLOOMINGTON    SUNNY     47  19  33 SW23G30   30.00R
DECATUR        CLOUDY    45  19  35 SW22G28   30.06S
PEORIA         MOSUNNY   49  23  36 SW21G32   29.98R
LACON*         CLOUDY    48  22  36 SW13G22   29.97R
LINCOLN*       MOSUNNY   46  23  41 SW8G17    30.04R
SPRINGFIELD    CLOUDY    46  24  42 SW12G22   30.05S
TAYLORVILLE    CLOUDY    44  26  49 SW13      30.08R
$$

ILZ033-039-045-046-055>057-062-063-262300-
EAST-CENTRAL ILLINOIS

CITY           SKY/WX    TMP DP  RH WIND       PRES   REMARKS
CHAMPAIGN      MOSUNNY   46  17  31 SW22G29   30.06R
RANTOUL*       SUNNY     47  19  31 SW22G29   30.04R
MATTOON        CLOUDY    45  20  36 SW13      30.07S
PARIS*         CLOUDY    44  22  40 SW16G22   30.10R
$$

ILZ079-100>102-262300-
SOUTHWEST ILLINOIS

CITY           SKY/WX    TMP DP  RH WIND       PRES   REMARKS
ALTON          CLOUDY    46  21  36 S13       30.08F
BELLEVILLE     CLOUDY    47  20  34 SE8       30.08S
CAHOKIA*       CLOUDY    48  18  30 S10       30.09R
SPARTA*        CLOUDY    46  22  39 S8        30.12R
$$

ILZ064>066-069>071-074>076-080>082-084>086-088>090-092>094-262300-
SOUTH-CENTRAL ILLINOIS

CITY           SKY/WX    TMP DP  RH WIND       PRES   REMARKS
CARBONDALE     CLOUDY    47  25  42 SW7       30.13R
CAIRO*         CLOUDY    51  21  30 CALM      30.12F
EFFINGHAM*     CLOUDY    47  23  38 S9G17     30.11S
MARION         CLOUDY    50  25  37 SW12      30.14R
MT. VERNON     CLOUDY    48  19  31 S10       30.12S
CENTRALIA*     CLOUDY    48  24  38 S12       30.10R
SALEM*         CLOUDY    48  18  29 SW9       30.10S
METROPOLIS*    CLOUDY    53  19  27 CALM      30.13R
$$

ILZ067-068-072-073-078-083-087-091-262300-
SOUTHEAST ILLINOIS

CITY           SKY/WX    TMP DP  RH WIND       PRES   REMARKS
LAWRENCEVILLE  CLOUDY    49  18  29 SW17      30.13S
FLORA*         CLOUDY    49  19  30 SW12      30.12R
FAIRFIELD*     CLOUDY    49  19  30 SW7       30.11S
HARRISBURG*    CLOUDY    49  27  43 W12       30.14R
ROBINSON*      CLOUDY    47  19  33 SW12      30.13R
CARMI*         CLOUDY    50  19  30 SW7       30.13S
$$

ABBREVIATIONS USED IN REMARKS
   TC - TEMPERATURE IN CELSIUS
  WCI - WIND CHILL INDEX
   HX - HEAT INDEX
  VSB - VISIBILITY
$$




USA.gov is the U.S. government's official web portal to all federal, state and local government web resources and services.